Wind_Speed
18 19 18 18 18 18 19 19 19 19 19 19 19 18 18 17 17 17 17 17 16 16 16 16 16 16 15 15 14 13 13 12 12 11 10 10 10 10 10 10 10 11 11
20 20 21 21 20 20 20 20 20 20 20 20 20 20 20 20 19 19 19 19 19 19 18 18 18 18 17 17 17 16 15 14 14 13 12 12 12 12 12 12 12 12 12
21 21 22 22 22 22 22 21 21 21 21 21 21 21 21 21 20 20 21 21 21 21 21 20 20 20 19 20 19 18 18 17 16 15 14 14 14 13 14 14 14 14 13
22 22 23 23 23 23 23 23 23 22 22 22 22 22 22 22 22 22 22 22 22 22 22 22 22 22 22 22 22 21 20 19 18 18 17 16 15 15 15 15 16 15 15
23 24 24 24 24 24 24 24 24 24 24 24 24 24 24 24 24 24 24 24 24 24 24 24 24 24 24 24 24 23 23 22 21 20 19 18 17 17 17 17 17 17 17
25 25 25 26 26 26 26 26 26 26 26 26 26 26 26 26 26 26 26 26 26 26 26 26 26 26 26 26 26 26 25 24 23 22 21 20 19 19 19 19 18 18 18
27 27 28 28 28 28 28 28 29 29 28 28 28 28 28 28 28 28 28 28 28 27 27 28 28 27 27 27 27 26 26 26 25 24 23 23 22 21 20 20 20 20 20
29 29 29 30 30 30 30 30 30 31 31 31 30 30 31 30 30 30 30 30 30 30 29 29 29 30 29 29 28 29 28 27 27 26 25 24 23 23 22 22 22 22 21
30 30 30 31 31 32 32 32 33 33 33 33 33 33 33 33 32 32 32 32 32 32 32 32 32 31 31 31 30 30 30 29 28 28 27 26 25 24 24 23 23 23 23
32 32 32 33 33 34 35 35 35 36 36 36 36 36 35 35 35 35 35 35 35 35 35 35 35 34 33 32 31 32 32 31 30 29 28 28 27 27 26 26 25 25 24
33 34 34 35 35 36 37 37 38 38 38 38 38 38 38 38 38 38 38 38 38 37 37 37 37 36 36 35 34 33 33 33 33 31 30 30 30 30 29 28 27 27 27
35 36 36 36 37 37 38 39 39 40 40 40 41 41 41 41 41 41 41 41 40 40 40 39 39 38 38 38 37 36 35 35 34 33 33 33 32 32 31 30 30 29 29
36 37 37 38 38 39 39 40 41 41 42 43 43 43 43 43 43 43 43 43 43 43 43 43 42 41 41 41 40 38 37 37 36 36 35 35 35 34 33 33 32 32 31
37 38 39 40 40 41 41 42 42 43 43 44 44 44 45 45 45 45 45 45 45 45 45 44 44 44 43 43 42 41 39 39 39 38 38 37 37 36 35 35 34 34 33
38 38 39 40 41 42 43 43 43 44 45 46 46 46 46 47 47 47 47 47 47 47 47 47 46 46 45 45 45 44 43 42 41 42 41 40 39 38 37 37 37 36 36
38 39 40 41 42 43 43 44 44 44 45 46 47 48 48 49 50 50 50 50 50 49 49 49 49 49 48 47 47 47 46 45 44 44 43 42 41 40 40 38 39 39 38
39 39 40 41 43 44 44 44 44 45 45 47 48 49 49 51 51 52 52 52 53 52 52 52 52 52 51 50 50 50 48 47 46 46 45 45 44 43 42 41 40 40 40
39 39 40 41 42 43 44 45 46 46 47 48 49 51 52 52 53 54 54 54 54 54 54 54 54 54 53 52 52 52 51 50 49 49 48 47 46 45 44 43 43 43 42
39 40 41 41 42 43 44 46 47 48 49 50 51 53 54 55 56 56 56 56 57 56 56 56 56 56 55 55 54 54 53 52 51 51 51 50 48 47 46 45 44 44 44
40 41 42 42 43 45 46 47 48 50 51 52 53 54 55 56 57 58 58 58 58 58 58 58 58 58 58 57 57 56 56 55 54 53 53 53 51 50 49 48 46 46 45
40 42 43 44 45 46 47 49 50 51 51 53 54 55 56 57 58 59 59 59 60 61 61 61 61 61 61 60 59 58 58 57 57 55 55 54 53 52 51 50 49 48 47
42 43 44 46 47 48 49 50 51 52 52 54 55 56 57 58 58 59 61 62 62 63 63 63 63 63 62 61 60 60 59 59 59 57 56 56 55 54 52 51 51 50 49
43 44 46 47 48 49 50 51 52 53 54 55 56 57 58 59 59 60 62 63 63 64 64 64 64 63 62 62 61 61 61 60 60 58 57 57 56 55 54 53 52 50 48
45 46 47 48 49 51 52 53 54 55 55 56 57 58 59 60 60 61 62 63 64 65 64 63 63 63 63 63 62 61 62 61 60 58 57 57 57 56 55 53 52 50 49
45 46 48 49 50 51 53 54 55 56 57 57 58 59 60 61 61 61 62 63 63 64 64 63 63 63 63 63 63 62 61 61 60 59 57 56 56 56 55 54 52 50 50
46 48 49 50 51 52 54 56 57 58 58 59 59 60 61 61 62 61 62 62 62 62 62 62 62 61 60 61 61 61 61 60 58 57 57 56 56 56 56 54 52 49 49
Wind_Direction
247 247 249 251 252 252 253 253 254 254 254 255 256 257 259 261 260 261 261 260 259 259 260 260 260 261 260 261 264 266 267 268 269 271 275 279 284 287 289 293 298 303 306
250 250 251 252 252 253 254 254 254 255 255 255 256 257 259 261 261 262 262 261 260 260 260 260 260 262 262 263 265 266 268 268 270 272 276 279 281 285 288 290 294 298 301
252 252 252 253 254 254 255 255 256 256 256 256 256 256 258 260 261 263 263 262 260 260 261 261 261 262 262 263 264 266 267 267 269 271 275 278 279 281 284 288 290 292 296
252 252 253 254 255 255 255 255 256 257 257 257 257 257 258 259 260 261 263 264 263 262 262 262 262 262 262 262 263 265 267 269 268 268 271 274 277 279 281 285 287 290 293
254 254 255 256 256 256 256 256 257 257 258 258 258 258 259 259 259 260 262 263 264 264 264 264 263 263 264 264 264 264 265 268 269 269 269 272 274 277 279 282 285 288 290
256 256 256 257 257 257 258 258 258 259 259 260 260 260 261 261 261 261 262 263 264 265 265 265 264 263 264 265 265 265 264 267 269 270 270 270 274 276 278 280 283 285 287
257 258 258 258 259 259 259 260 261 261 261 261 261 262 263 263 263 264 264 264 265 265 266 266 265 264 263 264 265 267 267 266 266 268 273 271 271 274 277 278 281 283 284
258 259 259 260 260 260 260 260 261 262 262 263 263 263 264 264 264 264 264 265 265 264 265 266 267 267 265 265 266 266 267 267 267 268 270 272 273 274 275 277 279 281 283
259 260 260 260 261 261 261 261 261 262 262 263 263 264 264 265 265 264 264 265 265 264 264 265 266 266 266 266 265 267 268 268 268 268 269 270 271 273 275 276 277 279 281
260 261 261 262 262 263 263 263 262 262 263 263 263 264 264 264 265 266 265 265 265 265 264 264 264 264 265 267 267 267 267 268 268 267 267 268 270 272 273 274 276 277 279
261 262 262 263 263 263 263 263 263 263 263 264 264 264 264 264 264 265 266 266 266 265 264 264 264 264 265 266 267 267 269 268 267 266 268 268 269 271 272 274 275 277 278
263 263 264 264 264 264 264 264 263 263 263 264 264 264 264 264 264 264 265 266 266 266 265 264 264 264 265 266 267 267 267 269 267 266 268 268 269 270 270 271 274 276 277
264 265 265 265 265 265 265 264 264 264 263 263 264 264 264 265 264 264 265 265 266 266 266 264 264 264 265 266 266 268 267 267 267 265 265 267 269 272 270 270 272 274 275
265 266 266 266 267 267 267 266 266 265 264 264 264 264 265 265 265 265 265 265 265 266 266 265 265 264 264 265 265 266 268 266 265 264 266 267 268 270 270 270 271 273 273
268 268 268 268 268 268 268 267 266 266 265 264 264 264 264 265 265 265 265 265 265 266 265 265 265 264 264 264 264 264 266 266 264 264 265 266 267 268 270 271 271 271 272
269 269 269 270 270 270 269 267 267 266 265 264 264 264 264 265 265 264 264 264 265 266 266 265 265 264 264 263 263 264 265 265 264 265 265 265 266 267 268 271 273 271 272
271 270 271 272 272 270 269 267 267 267 267 267 266 266 266 266 265 265 264 264 264 264 264 264 264 264 263 263 263 264 263 263 263 264 265 265 265 266 267 269 271 271 272
273 272 273 273 273 271 269 269 270 269 270 270 268 267 267 267 267 266 265 265 265 264 264 263 263 263 263 263 263 263 263 262 263 263 263 264 264 265 266 267 268 269 271
274 274 274 275 274 274 272 272 272 272 272 272 271 269 268 268 268 268 267 266 265 264 264 264 264 263 263 263 263 263 262 262 261 262 262 263 263 263 264 265 266 268 270
276 275 275 276 275 274 274 274 274 274 274 274 274 271 270 270 270 269 268 267 266 265 265 265 265 264 264 263 262 262 262 262 262 262 262 262 262 263 263 264 264 266 268
277 277 277 277 277 276 276 276 276 276 276 276 276 274 272 271 270 270 269 268 266 266 265 266 265 265 264 264 263 262 261 262 261 261 262 261 261 261 262 262 263 263 266
279 279 279 279 279 278 279 279 278 278 278 278 277 275 273 272 271 270 270 269 268 267 266 266 266 265 264 264 263 261 260 260 260 260 261 260 260 260 260 260 261 262 263
281 281 281 281 281 280 281 281 281 280 280 279 278 276 274 273 272 272 271 270 270 269 268 267 266 265 263 263 262 262 260 259 259 258 259 259 259 259 259 259 259 261 262
283 283 283 282 281 282 282 283 282 282 282 281 280 278 276 275 274 273 272 272 271 270 269 268 267 265 264 262 261 260 260 258 258 257 256 257 257 257 258 257 258 259 260
285 285 285 284 284 284 284 284 284 284 283 283 282 280 278 276 275 275 274 273 271 269 268 267 267 265 264 262 260 259 257 256 255 255 255 254 255 256 256 256 257 257 258
287 287 286 286 286 286 286 286 286 285 285 284 283 281 279 277 275 275 275 273 271 269 268 267 266 265 263 261 260 258 256 253 252 253 253 254 254 254 254 254 254 256 258
Height
5845 5845 5846 5847 5848 5848 5849 5850 5851 5852 5853 5853 5854 5855 5855 5856 5856 5857 5857 5857 5858 5858 5858 5859 5859 5859 5860 5860 5860 5860 5860 5860 5859 5859 5859 5859 5859 5858 5858 5857 5857 5856 5855
5841 5842 5843 5844 5845 5846 5846 5847 5848 5849 5850 5851 5851 5852 5853 5853 5854 5854 5855 5855 5855 5856 5856 5857 5857 5857 5857 5857 5858 5858 5858 5858 5858 5858 5858 5857 5857 5857 5856 5856 5855 5854 5853
5838 5839 5840 5841 5842 5843 5843 5844 5845 5846 5847 5847 5848 5849 5849 5850 5851 5851 5852 5852 5852 5853 5853 5854 5854 5854 5855 5855 5855 5855 5855 5855 5856 5856 5855 5855 5855 5854 5854 5854 5853 5852 5851
5835 5835 5836 5837 5838 5839 5840 5841 5842 5842 5843 5844 5845 5845 5846 5847 5847 5848 5848 5848 5849 5849 5850 5851 5851 5851 5851 5852 5852 5852 5852 5852 5853 5853 5853 5853 5852 5852 5852 5851 5851 5850 5849
5831 5832 5832 5833 5834 5835 5836 5837 5838 5839 5839 5840 5841 5842 5842 5843 5843 5844 5844 5845 5845 5846 5846 5847 5847 5848 5848 5848 5848 5848 5848 5849 5849 5850 5850 5850 5850 5849 5849 5848 5848 5848 5847
5826 5827 5828 5829 5830 5831 5832 5833 5834 5834 5835 5836 5837 5838 5838 5839 5839 5840 5840 5841 5841 5842 5842 5842 5843 5843 5844 5844 5844 5844 5845 5845 5846 5846 5847 5847 5846 5846 5846 5845 5845 5844 5844
5821 5823 5824 5825 5825 5826 5827 5828 5829 5830 5831 5831 5832 5833 5834 5834 5835 5836 5836 5837 5837 5837 5838 5838 5838 5839 5839 5839 5840 5840 5840 5841 5842 5842 5843 5843 5843 5842 5842 5842 5841 5841 5840
5816 5818 5818 5819 5820 5821 5822 5823 5824 5824 5825 5826 5827 5828 5828 5829 5830 5831 5831 5832 5832 5833 5833 5833 5834 5834 5834 5834 5835 5835 5836 5836 5837 5838 5838 5839 5839 5839 5838 5838 5838 5837 5837
5811 5812 5813 5814 5815 5816 5816 5817 5818 5819 5819 5820 5821 5822 5823 5823 5824 5825 5825 5826 5827 5827 5828 5828 5828 5829 5829 5829 5829 5830 5831 5832 5832 5833 5834 5834 5834 5834 5834 5834 5833 5833 5833
5804 5806 5807 5808 5808 5809 5810 5811 5812 5812 5813 5814 5815 5815 5816 5817 5818 5819 5819 5820 5820 5821 5822 5822 5822 5823 5823 5823 5824 5825 5825 5826 5827 5828 5828 5829 5829 5829 5829 5829 5829 5828 5828
5798 5799 5800 5801 5801 5802 5803 5804 5804 5805 5806 5807 5807 5808 5809 5810 5811 5811 5812 5813 5813 5814 5815 5815 5816 5816 5817 5818 5818 5819 5819 5820 5821 5822 5822 5823 5823 5824 5824 5824 5824 5823 5823
5791 5791 5792 5793 5794 5794 5795 5796 5797 5797 5798 5799 5800 5800 5801 5802 5803 5804 5805 5805 5806 5806 5807 5808 5809 5810 5810 5811 5812 5812 5813 5814 5814 5815 5816 5817 5817 5818 5818 5818 5818 5818 5818
5783 5784 5784 5785 5785 5786 5787 5787 5788 5789 5790 5790 5791 5792 5793 5793 5794 5795 5796 5797 5797 5798 5799 5800 5801 5802 5803 5803 5804 5805 5806 5807 5808 5809 5809 5810 5810 5811 5811 5812 5812 5812 5812
5775 5775 5776 5776 5777 5777 5778 5778 5779 5780 5780 5781 5782 5782 5783 5784 5785 5786 5787 5788 5788 5789 5790 5791 5792 5793 5794 5795 5796 5797 5798 5799 5800 5801 5802 5803 5803 5804 5804 5805 5805 5805 5805
5766 5767 5767 5767 5768 5768 5768 5769 5769 5770 5770 5771 5772 5773 5774 5774 5775 5776 5777 5778 5779 5779 5780 5781 5782 5783 5785 5786 5787 5788 5789 5790 5792 5793 5794 5795 5795 5796 5797 5797 5798 5798 5798
5757 5757 5757 5758 5758 5758 5758 5759 5759 5759 5760 5760 5761 5762 5763 5763 5764 5765 5766 5767 5768 5768 5769 5770 5771 5772 5774 5776 5777 5778 5779 5781 5782 5783 5785 5786 5787 5788 5789 5789 5790 5790 5790
5748 5748 5747 5747 5747 5747 5747 5748 5748 5749 5749 5749 5750 5751 5751 5751 5752 5753 5755 5756 5757 5757 5758 5759 5760 5761 5762 5764 5766 5768 5769 5771 5772 5773 5775 5776 5778 5779 5780 5781 5782 5782 5782
5738 5738 5738 5737 5736 5736 5736 5737 5737 5738 5738 5738 5738 5739 5739 5739 5739 5740 5742 5743 5744 5745 5746 5747 5748 5749 5750 5752 5754 5756 5758 5760 5761 5763 5764 5766 5768 5769 5770 5772 5773 5773 5774
5728 5728 5728 5727 5726 5726 5726 5726 5726 5726 5726 5726 5725 5725 5726 5726 5726 5727 5728 5729 5730 5731 5733 5734 5735 5736 5738 5739 5741 5744 5745 5747 5749 5751 5753 5754 5756 5758 5760 5761 5763 5764 5765
5718 5718 5717 5717 5716 5715 5715 5714 5714 5713 5713 5713 5712 5712 5712 5712 5712 5712 5713 5714 5715 5716 5718 5719 5720 5722 5724 5725 5727 5730 5732 5734 5736 5737 5740 5742 5745 5747 5749 5751 5752 5754 5755
5708 5707 5707 5706 5705 5704 5704 5703 5702 5701 5700 5699 5698 5697 5697 5696 5696 5697 5697 5698 5699 5700 5702 5703 5704 5706 5708 5709 5711 5714 5717 5719 5722 5724 5726 5729 5732 5734 5737 5739 5741 5743 5745
5697 5696 5695 5694 5693 5692 5691 5690 5688 5688 5687 5685 5684 5683 5681 5681 5681 5681 5681 5682 5682 5683 5685 5686 5687 5689 5691 5693 5695 5697 5701 5704 5707 5709 5712 5715 5718 5721 5724 5727 5729 5732 5734
5686 5685 5684 5682 5681 5679 5678 5677 5675 5674 5673 5671 5669 5668 5666 5665 5664 5664 5664 5665 5665 5665 5667 5668 5669 5671 5674 5676 5677 5680 5683 5687 5691 5695 5697 5701 5704 5707 5711 5714 5717 5720 5722
5675 5673 5671 5670 5668 5666 5664 5663 5661 5659 5658 5656 5654 5652 5651 5650 5649 5647 5647 5647 5647 5648 5648 5649 5651 5652 5655 5658 5660 5662 5665 5669 5673 5679 5683 5686 5690 5693 5697 5700 5704 5707 5711
5663 5661 5659 5657 5655 5653 5650 5648 5646 5644 5642 5640 5638 5636 5634 5633 5632 5630 5629 5629 5629 5629 5630 5631 5632 5634 5636 5639 5642 5645 5648 5652 5656 5660 5667 5672 5676 5679 5683 5687 5691 5695 5698
5652 5650 5647 5645 5642 5639 5636 5633 5631 5628 5626 5624 5622 5619 5617 5616 5615 5613 5611 5610 5610 5611 5612 5613 5614 5615 5618 5621 5624 5627 5631 5635 5641 5645 5650 5656 5661 5665 5669 5673 5677 5681 5685